Waarnemingen

Advertentie
Mijn weer
Oostende Airport, België (6407): temperatuur & dauwpunt: 12.02.2019 18:00:00 - 18.02.2019 18:00:00 (CET)Oostende Airport, België (6407): windsnelheid & windstoten: 12.02.2019 18:00:00 - 18.02.2019 18:00:00 (CET)Oostende Airport, België (6407): windrichting: 12.02.2019 18:00:00 - 18.02.2019 18:00:00 (CET)Oostende Airport, België (6407): luchtdruk: 12.02.2019 18:00:00 - 18.02.2019 18:00:00 (CET)Oostende Airport, België (6407): zicht: 12.02.2019 18:00:00 - 18.02.2019 18:00:00 (CET)
Datum & Tijd tt [°C] td [°C] ff [km/u] ff [kn] fx [km/u] fx [kn] dd ppp [hPa] vv [km]
18.02.2019 18:00:00 7,2 5,3 5 3 14 8 W 1015,5 8
18.02.2019 17:00:00 8,7 6,4 11 6 25 14 WNW 1015,6 10
18.02.2019 16:00:00 12,0 7,2 13 7 - - W 1015,9 10
18.02.2019 15:00:00 12,9 7,3 16 9 25 14 ZZW 1015,6 10
18.02.2019 14:00:00 12,7 7,4 16 9 22 12 Z 1016,2 10
18.02.2019 13:00:00 11,9 7,2 16 9 - - ZZW 1017,1 10
18.02.2019 12:00:00 10,5 6,0 11 6 18 10 ZZW 1017,7 10
18.02.2019 11:00:00 8,4 4,7 8 4 11 6 Z 1018,0 10
18.02.2019 10:00:00 5,6 2,4 5 3 - - Z 1018,2 10
18.02.2019 09:00:00 2,7 0,6 8 4 11 6 Z 1018,1 10
18.02.2019 08:00:00 2,0 -0,2 8 4 14 8 ZO 1017,7 10
18.02.2019 07:00:00 1,8 -0,2 9 5 - - Z 1017,8 10
18.02.2019 06:00:00 1,8 -0,3 8 4 11 6 Z 1018,0 10
18.02.2019 05:00:00 2,0 0,5 8 4 11 6 ZZW 1018,1 10
18.02.2019 04:00:00 3,2 1,0 5 3 - - Z 1018,4 10
18.02.2019 03:00:00 3,4 1,0 11 6 14 8 Z 1018,6 10
18.02.2019 02:00:00 3,6 1,3 11 6 14 8 Z 1018,7 10
18.02.2019 01:00:00 4,1 1,4 8 4 - - ZZW 1018,5 10
18.02.2019 00:00:00 4,6 1,1 11 6 14 8 Z 1018,5 10
17.02.2019 23:00:00 5,6 2,3 11 6 14 8 Z 1018,8 10
17.02.2019 22:00:00 4,6 2,1 8 4 - - Z 1019,1 10
17.02.2019 21:00:00 5,9 3,0 9 5 14 8 Z 1018,8 10
17.02.2019 20:00:00 7,5 3,2 13 7 14 8 Z 1018,7 10
17.02.2019 19:00:00 8,4 3,2 9 5 - - ZZW 1018,5 10
17.02.2019 18:00:00 10,9 4,7 16 9 22 12 Z 1017,7 10
17.02.2019 17:00:00 12,2 5,2 18 10 32 18 Z 1017,7 10
17.02.2019 16:00:00 12,8 3,6 24 13 - - Z 1018,0 10
17.02.2019 15:00:00 13,4 4,0 24 13 36 19 Z 1017,7 10
17.02.2019 14:00:00 13,7 3,7 26 14 40 21 Z 1017,8 10
17.02.2019 13:00:00 12,7 3,1 26 14 - - Z 1018,2 10
17.02.2019 12:00:00 10,6 3,1 18 10 32 18 Z 1018,8 10
17.02.2019 11:00:00 9,1 3,0 18 10 25 14 ZZO 1019,2 10
17.02.2019 10:00:00 6,3 2,6 16 9 - - ZZO 1019,5 10
17.02.2019 09:00:00 3,3 0,9 15 8 22 12 Z 1020,0 10
17.02.2019 08:00:00 2,6 0,5 11 6 18 10 ZZO 1020,0 10
17.02.2019 07:00:00 2,8 0,8 15 8 - - ZZO 1020,0 9
17.02.2019 06:00:00 2,4 0,3 9 5 11 6 ZO 1020,7 9
17.02.2019 05:00:00 2,8 0,2 5 3 18 10 ZZO 1021,1 8
17.02.2019 04:00:00 2,8 0,8 13 7 - - Z 1021,6 7
17.02.2019 03:00:00 2,6 0,6 5 3 11 6 ZZO 1022,3 6
17.02.2019 02:00:00 3,0 1,1 8 4 11 6 ZO 1022,7 6
17.02.2019 01:00:00 4,0 2,4 8 4 - - ZO 1023,3 6
17.02.2019 00:00:00 3,9 2,1 5 3 11 6 ZZO 1023,7 6
16.02.2019 23:00:00 4,2 2,3 5 3 7 4 ZO 1024,0 6
16.02.2019 22:00:00 5,3 3,4 5 3 - - Z 1024,3 7
16.02.2019 21:00:00 5,5 3,1 5 3 14 8 ZZO 1024,4 7
16.02.2019 20:00:00 5,5 3,5 8 4 11 6 ZZO 1024,7 9
16.02.2019 19:00:00 7,6 4,5 8 4 - - ZO 1024,8 9
16.02.2019 18:00:00 9,4 5,7 5 3 14 8 ZO 1024,8 10
16.02.2019 17:00:00 11,7 5,6 11 6 22 12 Z 1025,0 10
16.02.2019 16:00:00 12,3 6,4 16 9 - - ZZW 1025,1 10
16.02.2019 15:00:00 12,8 6,9 13 7 18 10 ZW 1025,5 10
16.02.2019 14:00:00 12,0 6,7 15 8 22 12 ZW 1026,0 10
16.02.2019 13:00:00 11,1 5,9 16 9 - - ZZW 1026,1 10
16.02.2019 12:00:00 9,2 4,4 18 10 22 12 ZZW 1026,3 10
16.02.2019 11:00:00 7,3 3,0 13 7 22 12 ZZW 1026,2 10
16.02.2019 10:00:00 3,9 1,4 13 7 - - ZZW 1026,2 10
16.02.2019 09:00:00 1,7 0,1 9 5 14 8 Z 1025,9 10
16.02.2019 08:00:00 1,6 -0,7 11 6 14 8 Z 1025,5 9
16.02.2019 07:00:00 1,9 -0,2 13 7 - - ZZW 1024,9 10
16.02.2019 06:00:00 2,5 0,1 13 7 18 10 Z 1024,5 8
16.02.2019 05:00:00 2,5 0,6 15 8 18 10 Z 1024,4 8
16.02.2019 04:00:00 1,1 -0,4 11 6 - - ZZW 1024,7 7
16.02.2019 03:00:00 2,3 0,6 9 5 14 8 ZZW 1025,2 10
16.02.2019 02:00:00 2,5 0,9 11 6 14 8 Z 1025,7 10
16.02.2019 01:00:00 1,6 0,2 9 5 - - ZZW 1026,0 8
16.02.2019 00:00:00 3,2 1,2 11 6 14 8 Z 1026,0 10
15.02.2019 23:00:00 3,7 1,5 11 6 14 8 Z 1026,1 10
15.02.2019 22:00:00 4,0 1,0 9 5 - - Z 1026,3 10
15.02.2019 21:00:00 5,6 1,5 8 4 14 8 Z 1026,7 10
15.02.2019 20:00:00 5,7 2,0 13 7 18 10 Z 1026,9 10
15.02.2019 19:00:00 8,1 3,1 13 7 - - Z 1027,0 10
15.02.2019 18:00:00 9,3 4,5 11 6 14 8 ZZO 1027,1 10
15.02.2019 17:00:00 12,6 4,9 11 6 25 14 Z 1027,6 10
15.02.2019 16:00:00 13,2 3,6 16 9 - - Z 1028,0 10
15.02.2019 15:00:00 12,8 4,0 18 10 22 12 ZZO 1028,5 10
15.02.2019 14:00:00 11,7 3,6 16 9 25 14 Z 1029,2 10
15.02.2019 13:00:00 10,3 2,6 18 10 - - Z 1029,9 10
15.02.2019 12:00:00 8,6 2,3 18 10 25 14 ZZO 1030,3 10
15.02.2019 11:00:00 6,5 1,6 18 10 22 12 ZZO 1030,7 10
15.02.2019 10:00:00 4,2 0,5 8 4 - - ZO 1030,9 10
15.02.2019 09:00:00 1,9 -0,9 9 5 11 6 ZZO 1030,8 10
15.02.2019 08:00:00 0,5 -1,7 8 4 11 6 ZO 1030,8 10
15.02.2019 07:00:00 1,6 -1,3 8 4 - - ZZO 1030,6 10
15.02.2019 06:00:00 1,4 -1,1 13 7 14 8 ZO 1030,7 10
15.02.2019 05:00:00 1,3 -1,0 11 6 14 8 ZO 1030,8 10
15.02.2019 04:00:00 2,0 -0,4 9 5 - - ZO 1031,0 10
15.02.2019 03:00:00 1,7 -0,3 11 6 14 8 ZO 1031,5 10
15.02.2019 02:00:00 2,1 0,4 11 6 14 8 ZO 1032,0 10
15.02.2019 01:00:00 2,7 0,1 11 6 - - ZO 1032,3 10
15.02.2019 00:00:00 2,9 0,2 8 4 14 8 OZO 1032,4 10
14.02.2019 23:00:00 2,5 0,5 11 6 14 8 ZO 1032,5 10
14.02.2019 22:00:00 3,8 1,3 11 6 - - OZO 1032,3 10
14.02.2019 21:00:00 4,5 1,0 9 5 14 8 ZO 1032,5 10
14.02.2019 20:00:00 5,8 2,2 9 5 11 6 ZZO 1032,7 10
14.02.2019 19:00:00 6,5 2,8 8 4 - - ZO 1032,9 10
14.02.2019 18:00:00 8,4 4,0 9 5 14 8 ZO 1033,0 10
14.02.2019 17:00:00 10,9 4,1 13 7 22 12 ZZO 1033,1 10
14.02.2019 16:00:00 11,5 3,2 13 7 - - ZO 1033,7 10
14.02.2019 15:00:00 11,4 3,2 15 8 22 12 ZZO 1033,9 10
14.02.2019 14:00:00 10,3 3,3 13 7 18 10 ZZO 1034,5 10
14.02.2019 13:00:00 9,1 3,5 9 5 - - ZZO 1035,2 10
14.02.2019 12:00:00 7,4 2,6 11 6 18 10 ZZO 1035,6 10
14.02.2019 11:00:00 5,1 1,6 8 4 14 8 Z 1035,4 10
14.02.2019 10:00:00 2,8 0,1 8 4 - - ZO 1035,3 10
14.02.2019 09:00:00 0,6 -1,4 8 4 11 6 ZZO 1035,3 9
14.02.2019 08:00:00 -0,1 -1,6 5 3 11 6 OZO 1035,1 8
14.02.2019 07:00:00 -0,3 -2,1 5 3 - - ZO 1034,9 7
14.02.2019 06:00:00 0,4 -1,2 11 6 14 8 ZZO 1034,7 6
14.02.2019 05:00:00 0,1 -1,5 11 6 14 8 Z 1034,5 6
14.02.2019 04:00:00 0,4 -1,4 11 6 - - Z 1034,5 6
14.02.2019 03:00:00 0,3 -1,1 8 4 11 6 Z 1034,8 6
14.02.2019 02:00:00 1,3 -0,3 7 4 14 8 Z 1034,8 7
14.02.2019 01:00:00 1,3 -0,3 8 4 - - Z 1035,1 7
14.02.2019 00:00:00 2,1 0,5 11 6 22 12 Z 1035,0 8
13.02.2019 23:00:00 2,9 0,9 16 9 22 12 Z 1034,9 10
13.02.2019 22:00:00 3,2 1,0 13 7 - - Z 1035,1 10
13.02.2019 21:00:00 3,6 1,3 13 7 25 14 Z 1035,1 10
13.02.2019 20:00:00 4,3 1,9 15 8 18 10 Z 1035,4 10
13.02.2019 19:00:00 4,9 1,9 13 7 - - Z 1035,4 10
13.02.2019 18:00:00 6,0 2,4 15 8 22 12 Z 1035,1 10
13.02.2019 17:00:00 8,0 3,0 18 10 25 14 Z 1035,3 10
13.02.2019 16:00:00 8,3 3,5 18 10 - - Z 1035,3 12
13.02.2019 15:00:00 8,2 3,6 18 10 25 14 Z 1035,1 10
13.02.2019 14:00:00 7,7 3,6 18 10 29 16 Z 1035,6 10
13.02.2019 13:00:00 7,8 3,7 21 11 - - ZZW 1036,3 10
13.02.2019 12:00:00 6,2 2,7 15 8 25 14 Z 1036,5 10
13.02.2019 11:00:00 4,9 2,0 18 10 25 14 Z 1036,2 10
13.02.2019 10:00:00 4,0 0,9 18 10 - - Z 1036,4 10
13.02.2019 09:00:00 4,3 1,8 16 9 22 12 Z 1036,0 10
13.02.2019 08:00:00 4,6 2,0 16 9 22 12 ZZW 1035,7 10
13.02.2019 07:00:00 4,5 2,2 13 7 - - ZZW 1035,6 10
13.02.2019 06:00:00 4,6 2,2 15 8 18 10 ZZW 1035,6 10
13.02.2019 05:00:00 4,8 2,4 15 8 22 12 ZZW 1035,6 10
13.02.2019 04:00:00 4,9 2,4 15 8 - - ZZW 1035,8 10
13.02.2019 03:00:00 4,8 2,6 16 9 22 12 ZZW 1035,6 10
13.02.2019 02:00:00 4,4 2,4 15 8 18 10 ZZW 1035,8 10
13.02.2019 01:00:00 4,2 2,1 13 7 - - ZZW 1036,1 10
13.02.2019 00:00:00 3,7 1,8 13 7 22 12 ZZW 1035,8 10
12.02.2019 23:00:00 4,4 2,2 16 9 22 12 ZZW 1035,4 10
12.02.2019 22:00:00 4,0 1,7 16 9 - - ZZW 1035,3 10
12.02.2019 21:00:00 5,2 2,3 16 9 25 14 ZW 1035,4 10
12.02.2019 20:00:00 5,5 3,0 13 7 18 10 ZZW 1035,5 10
12.02.2019 19:00:00 4,8 2,7 13 7 - - ZZW 1035,0 10
12.02.2019 18:00:00 6,1 3,3 11 6 18 10 ZW 1034,8 10

tt = temperatuur
td = dauwpunt
ff = windsnelheid
fx = windstoten
dd = windrichting
ppp = luchtdruk
vv = zicht

Weerstations in de omgeving